Weather History for Green Bay, WI

Change the Weather History Date:

Monday, April 7, 2014

  Actual Average Record
Temperature  
Mean Temperature 48 °F 40 °F  
Max Temperature 62 °F 50 °F 81 °F (1991)
Min Temperature 34 °F 31 °F 16 °F (1972)
Degree Days  
Heating Degree Days 17 25  
Month to date heating degree days 185 183  
Since 1 July heating degree days 7960 7083  
Cooling Degree Days 0 0  
Month to date cooling degree days 0 0  
Year to date cooling degree days 0 0  
Moisture  
Dew Point 37 °F    
Average Humidity 68    
Maximum Humidity 92    
Minimum Humidity 43    
Precipitation  
Precipitation 0.03 in 0.08 in 1.16 in (1929)
Month to date precipitation 0.31 0.56  
Year to date precipitation 4.01 4.65  
Snow  
Snow 0.00 in 0.10 in 2.50 in (1923)
Month to date snowfall 0.2 1.0  
Since 1 July snowfall 68.6 49.3  
Snow Depth 0.00 in    
Sea Level Pressure  
Sea Level Pressure 29.77 in    
Wind  
Wind Speed 5 mph (SE)    
Max Wind Speed 15 mph    
Max Gust Speed 19 mph    
Visibility 9 miles    
Events Rain    
T = Trace of Precipitation, MM = Missing Value Source: NWS Daily Summary

Daily Weather History Graph

Daily Weather History Graph

Search for Another Location

Airport:

Trip Planner

Search our weather history database for the weather conditions in past years. The results will help you decide how hot, cold, wet, or windy it might be!

Date:

Astronomy

Apr. 07, 2014 Rise Set
Actual Time 6:22 AM CDT 7:27 PM CDT
Civil Twilight 5:52 AM CDT 7:57 PM CDT
Nautical Twilight 5:17 AM CDT 8:32 PM CDT
Astronomical Twilight 4:39 AM CDT 9:10 PM CDT
Moon 12:12 PM CDT (4/7) 2:10 AM CDT (4/7)
Length of Visible Light 14h 04m
Length of Day
13h 04m
First Quarter, 53% of the Moon is Illuminated
Apr 7
First Quarter
Apr 15
Full
Apr 22
Last Quarter
Apr 29
New
May 6
First Quarter

Hourly Weather History & Observations

Time (CDT) Temp. Windchill Dew Point Humidity Pressure Visibility Wind Dir Wind Speed Gust Speed Precip Events Conditions
12:53 AM 41.0 °F 38.0 °F 33.1 °F 73% 29.91 in 10.0 mi SSW 4.6 mph - N/A   Clear
1:53 AM 37.0 °F - 32.0 °F 82% 29.90 in 9.0 mi Calm Calm - N/A   Clear
2:53 AM 35.1 °F 32.2 °F 32.0 °F 89% 29.89 in 9.0 mi South 3.5 mph - N/A   Overcast
3:53 AM 37.9 °F 32.7 °F 32.0 °F 79% 29.87 in 10.0 mi South 6.9 mph - N/A   Overcast
4:53 AM 37.9 °F 34.4 °F 32.0 °F 79% 29.86 in 10.0 mi South 4.6 mph - N/A   Overcast
5:53 AM 36.0 °F 32.1 °F 32.0 °F 86% 29.85 in 9.0 mi South 4.6 mph - N/A   Mostly Cloudy
6:53 AM 37.9 °F 34.4 °F 32.0 °F 79% 29.87 in 9.0 mi South 4.6 mph - N/A   Mostly Cloudy
7:53 AM 39.0 °F - 34.0 °F 82% 29.88 in 8.0 mi Calm Calm - N/A   Overcast
8:53 AM 43.0 °F - 36.0 °F 76% 29.85 in 9.0 mi Calm Calm - N/A   Overcast
9:53 AM 46.0 °F 43.9 °F 36.0 °F 68% 29.82 in 10.0 mi SSW 4.6 mph - N/A   Overcast
10:53 AM 48.0 °F - 37.0 °F 66% 29.82 in 10.0 mi SSW 3.5 mph - N/A   Overcast
11:53 AM 52.0 °F - 37.9 °F 59% 29.78 in 10.0 mi Calm Calm - N/A   Overcast
12:53 PM 53.1 °F - 37.9 °F 57% 29.75 in 10.0 mi Calm Calm - N/A   Overcast
1:53 PM 59.0 °F - 37.9 °F 46% 29.72 in 9.0 mi ESE 4.6 mph - N/A   Mostly Cloudy
2:53 PM 62.6 °F - 39.2 °F 42% 29.69 in 10.0 mi Variable 3.5 mph - N/A   Overcast
3:53 PM 59.0 °F - 39.0 °F 48% 29.68 in 10.0 mi NNE 6.9 mph - N/A   Overcast
4:53 PM 57.0 °F - 39.9 °F 53% 29.67 in 9.0 mi ENE 9.2 mph - N/A   Overcast
5:53 PM 52.0 °F - 39.0 °F 61% 29.67 in 8.0 mi ENE 9.2 mph - N/A   Overcast
6:53 PM 50.0 °F - 39.9 °F 68% 29.67 in 8.0 mi North 4.6 mph - N/A   Overcast
7:53 PM 48.9 °F - 39.0 °F 69% 29.67 in 9.0 mi North 5.8 mph - N/A   Overcast
8:53 PM 46.0 °F 43.9 °F 41.0 °F 83% 29.68 in 6.0 mi NNE 4.6 mph - 0.02 in Rain Light Rain
9:53 PM 45.0 °F 41.8 °F 43.0 °F 93% 29.67 in 5.0 mi WNW 5.8 mph - 0.01 in Rain Light Rain
10:53 PM 45.0 °F 41.2 °F 42.1 °F 90% 29.65 in 7.0 mi NNW 6.9 mph - 0.00 in Rain Light Rain
11:53 PM 46.0 °F 41.0 °F 41.0 °F 83% 29.66 in 10.0 mi North 10.4 mph - 0.00 in   Overcast